Location: Pasadena, ca
(34.1243°N, 118.1037°W)
Time: 16:21:02
(UTC-08:00)

N. Korean satellite - Pass Details

Date: 11 November 2017
Orbit: 460 x 515 km, 97.2° (Epoch: 18 November)

Event Time Altitude Azimuth Distance (km) Brightness Sun altitude
Rises 18:29:52 0° 190° (S) 2,468 10.4 -20.6°
Reaches altitude 10° 18:32:05 10° 202° (SSW) 1,599 9.5 -21.1°
Maximum altitude 18:35:04 28° 263° (W) 898 8.6 -21.7°
Drops below altitude 10° 18:38:06 10° 324° (NW) 1,618 9.6 -22.3°
Sets 18:40:21 0° 336° (NNW) 2,504 10.4 -22.8°
